{"data":{"norad_id":65615,"intl_designator":"2025-207Z","name":"STARLINK-35174","alt_names":[],"object_type":"PAYLOAD","status":"ACTIVE","operator":null,"country":"US","launch_date":"2025-09-13","launch_site_code":"AFWTR","launch_vehicle":null,"mission":null,"orbit_class":"UNKNOWN","rcs_meters":null,"size_class":null,"mass_kg":null,"dimensions":null,"purposes":["comms"],"wikipedia_slug":null,"has_3d_model":false,"image_url":null,"decayed_at":null,"tle_current":{"epoch":"2026-09-20T22:00:03.000096Z","epoch_age_seconds":75919,"freshness":"FRESH","line1":"1 65615U 25207Z   26263.91670139 -.00004638  00000+0 -14139-3 0  9997","line2":"2 65615  97.2850 326.3962 0001708  95.4208  95.0241 15.33447860  5806","mean_motion":15.3344786,"eccentricity":0.0001708,"inclination_deg":97.285,"raan_deg":326.3962,"arg_perigee_deg":95.4208,"mean_anomaly_deg":95.0241,"bstar":-0.00014139,"rev_number":580,"period_min":93.90602951443,"perigee_km":464.36576602313,"apogee_km":466.70356426394,"semimajor_km":6843.6716651435,"source":"CELESTRAK","updated_at":"2026-09-21T09:00:35.658014Z"}}}